TimeAKDT,TemperatureF,Dew PointF,Humidity,Sea Level PressureIn,VisibilityMPH,Wind Direction,Wind SpeedMPH,Gust SpeedMPH,PrecipitationIn,Events,Conditions,WindDirDegrees,DateUTC
12:27 AM,48.2,46.4,93,29.69,5.0,ENE,6.9,-,0.00,Rain,Light Rain,70,2013-10-04 08:27:00
12:56 AM,48.2,46.4,93,29.69,10.0,ENE,8.1,-,N/A,,Overcast,60,2013-10-04 08:56:00
1:56 AM,47.8,46.9,97,29.71,9.0,Calm,Calm,-,N/A,,Overcast,0,2013-10-04 09:56:00
2:56 AM,46.9,46.9,100,29.70,10.0,East,3.5,-,N/A,,Overcast,80,2013-10-04 10:56:00
3:56 AM,48.9,47.8,96,29.70,10.0,East,3.5,-,N/A,,Overcast,80,2013-10-04 11:56:00
4:56 AM,46.9,46.9,100,29.68,8.0,Calm,Calm,-,0.00,Rain,Light Rain,0,2013-10-04 12:56:00
5:56 AM,48.9,46.9,93,29.67,10.0,East,8.1,-,0.00,,Overcast,80,2013-10-04 13:56:00
6:56 AM,48.2,46.4,93,29.67,10.0,ENE,8.1,-,N/A,,Overcast,70,2013-10-04 14:56:00
7:56 AM,48.9,45.9,89,29.67,10.0,East,9.2,-,N/A,,Mostly Cloudy,90,2013-10-04 15:56:00
8:56 AM,48.9,45.0,86,29.67,10.0,East,5.8,-,N/A,,Overcast,100,2013-10-04 16:56:00
9:56 AM,50.0,45.9,86,29.67,10.0,East,8.1,-,0.00,Rain,Light Rain,80,2013-10-04 17:56:00
10:42 AM,48.2,48.2,100,29.67,3.0,East,4.6,-,0.08,Rain,Rain,80,2013-10-04 18:42:00
10:56 AM,48.9,46.9,93,29.67,7.0,ENE,5.8,-,0.09,Rain,Light Rain,60,2013-10-04 18:56:00
11:56 AM,50.0,48.9,96,29.67,3.0,Calm,Calm,-,0.08,Rain,Rain,0,2013-10-04 19:56:00
12:25 PM,48.2,48.2,100,29.67,2.5,WSW,3.5,-,0.06,Rain,Rain,250,2013-10-04 20:25:00
12:56 PM,48.2,48.2,100,29.68,3.0,Calm,Calm,-,N/A,Rain,Light Rain,0,2013-10-04 20:56:00
1:05 PM,48.2,48.2,100,29.67,3.0,Calm,Calm,-,0.01,Rain,Rain,0,2013-10-04 21:05:00
1:56 PM,47.8,47.8,100,29.68,10.0,Calm,Calm,-,0.03,,Overcast,0,2013-10-04 21:56:00
2:56 PM,47.8,47.8,100,29.68,10.0,WNW,3.5,-,0.00,,Overcast,300,2013-10-04 22:56:00
3:56 PM,50.0,47.8,92,29.68,10.0,East,4.6,-,N/A,,Overcast,80,2013-10-04 23:56:00
4:56 PM,50.0,47.8,92,29.69,10.0,East,3.5,-,N/A,,Mostly Cloudy,80,2013-10-05 00:56:00
5:56 PM,47.8,47.8,100,29.69,10.0,Calm,Calm,-,0.00,Rain,Light Rain,0,2013-10-05 01:56:00
6:56 PM,46.9,46.9,100,29.70,10.0,East,3.5,-,0.00,,Mostly Cloudy,100,2013-10-05 02:56:00
7:56 PM,46.9,46.9,100,29.72,8.0,Calm,Calm,-,0.01,Rain,Light Rain,0,2013-10-05 03:56:00
8:56 PM,46.9,46.9,100,29.73,6.0,Calm,Calm,-,0.02,Rain,Light Rain,0,2013-10-05 04:56:00
9:56 PM,46.4,46.4,100,29.74,4.0,Calm,Calm,-,N/A,Rain,Light Rain,0,2013-10-05 05:56:00
10:56 PM,45.9,45.9,100,29.76,8.0,Calm,Calm,-,0.01,Rain,Light Rain,0,2013-10-05 06:56:00
11:10 PM,46.4,46.4,100,29.76,7.0,Calm,Calm,-,0.01,Rain,Light Rain,0,2013-10-05 07:10:00
11:56 PM,45.9,45.9,100,29.78,6.0,Calm,Calm,-,0.03,Rain,Light Rain,0,2013-10-05 07:56:00